Location: Bailleul
(50.3375°N, 2.8513°E)
Time: 16:15:39
(UTC+00:00)

ALOS 2 - Pass Details

Date: 19 April 2021
Orbit: 630 x 632 km, 97.9° (Epoch: 07 May)

Event Time Altitude Azimuth Distance (km) Brightness Sun altitude
Exits shadow 23:10:41 57° 345° (NNW) 752 3.2 -27.6°
Drops below altitude 10° 23:14:12 10° 346° (NNW) 2,024 6.2 -27.7°
Sets 23:16:24 0° 347° (NNW) 2,937 7.3 -27.8°
